COSMOS 2485 (747)

Last updated on Sun Apr 12 2026 00:03:25 GMT+0000 (Coordinated Universal Time)

1 39155U 13019A 26099.86740919 .00000043 00000+0 00000+0 0 9992 2 39155 65.3826 75.8959 0025014 237.6370 122.1167 2.13103329100823
UTC large
Height (km)
Speed (km/s)
/
Latitude / Longitude
Inclination (degrees)
Orbital Period (minutes)
Azimuth
Elevation
Range (km)
Doppler Factor

Next 0 passes for location: London (51.5072 / 0.1276)

Sorry there are no passes over London.
COSMOS 2485 (747)